[[{"header":{"parameterUnit":"m.s-1","parameterCategory":1,"la1":30.2991,"la2":30.254,"lo1":-89.0895,"lo2":-89.0444,"dy":0.0017,"dx":0.0017,"nx":28,"ny":28,"refTime":"2024-08-30T03:00:00:Z","depth":0,"parameterNumber":2,"parameterNumberName":"U-component_of_WINDS"},"data":[0,0,0,0,0,0,0,0,0,0,0,0,0,0,0,0,0,0,0,0,0,0,0,0,0,0,0,0,0,0,0,0,0,0,0,0,0,0,0,0,0,0,0,0,0,0,0,0,0,0,0,0,0,0,0,0,0,0,-2.9792,-2.9791,0,-2.968,-2.9679,-2.9677,-2.9465,-2.9461,-2.9456,-2.9453,-2.9347,-2.9348,-2.9349,0,0,0,0,0,0,0,0,0,0,0,0,0,-2.9831,-2.9832,-2.9793,-2.9791,-2.979,-2.968,-2.9679,-2.9677,-2.9466,-2.946,-2.9455,-2.9451,-2.9346,-2.9348,-2.9349,0,0,0,0,0,0,0,0,0,0,0,0,0,-2.9777,-2.9832,-2.9793,-2.9671,-2.9659,-2.968,-2.9679,-2.9677,-2.9467,-2.946,-2.9454,-2.9448,-2.9346,-2.9347,-2.9349,-2.9483,0,0,-2.9354,-2.9354,0,0,0,0,0,0,0,0,-2.978,-2.9775,-2.969,-2.9679,-2.9666,-2.958,-2.9653,-2.9612,-2.9468,-2.954,-2.9452,-2.9445,-2.943,-2.9424,-2.9417,-2.9478,-2.9474,-2.9354,-2.9355,-2.9356,-2.9356,0,0,0,0,0,0,0,-2.9784,-2.9779,-2.9748,-2.9689,-2.9674,-2.9624,-2.9609,-2.9644,-2.9522,-2.9533,-2.9517,-2.9506,-2.9422,-2.9416,-2.9413,-2.9472,-2.9354,-2.9355,-2.9356,-2.9357,-2.9638,-2.9644,0,0,0,0,0,0,-2.9804,-2.9784,-2.9752,-2.9745,-2.9708,-2.9628,-2.9612,-2.9614,-2.952,-2.95,-2.9512,-2.9497,-2.9416,-2.9411,-2.9409,-2.9558,-2.9356,-2.9357,-2.9358,-2.9631,-2.9639,-2.9646,0,0,0,0,0,0,-2.9806,-2.9804,-2.9756,-2.976,-2.975,-2.9634,-2.9638,-2.9615,-2.9608,-2.9504,-2.9482,-2.9528,-2.9411,-2.9406,-2.9465,-2.9552,-2.9358,-2.9359,-2.9623,-2.9634,-2.9643,-2.9861,0,0,0,0,0,0,-2.9808,-2.9805,-2.9854,-2.9762,-2.975,-2.9814,-2.9643,-2.9617,-2.9611,-2.959,-2.9513,-2.9495,-2.9406,-2.9464,-2.9467,-2.9551,-2.936,-2.9615,-2.9628,-2.9639,-2.9846,-2.9878,-2.9904,0,0,0,0,0,-2.981,-2.9922,-2.9857,-2.9855,-2.9808,-2.9819,-2.9812,-2.9705,-2.9619,-2.9667,-2.96,-2.9497,-2.9542,-2.9472,-2.9473,-2.9559,-2.9609,-2.9624,-2.9639,-2.9833,-2.9871,-2.9904,0,0,0,0,0,0,-3.003,-2.9908,-2.9835,-2.992,-2.9881,-2.9783,-2.9841,-2.975,-2.9737,-2.9719,-2.9589,-2.9574,-2.965,-2.961,-2.9534,-2.9684,-2.9559,-2.9575,-2.9707,-2.9742,-2.9771,-2.9779,-2.9362,0,0,0,0,0,-3.0088,-3.0105,-2.9998,-3.0084,-3.0067,-2.9958,-2.9959,-2.9879,-2.9835,-2.9819,-2.9756,-2.972,-2.9724,-2.9731,-2.9731,-2.9839,-2.982,-2.9899,-2.9928,-2.9953,-2.9968,-3.0022,-3.0055,-2.9694,-2.9694,-2.9694,0,0,-3.0209,-3.0144,-3.0163,-3.0126,-3.0086,-3.0108,-2.9946,-2.9976,-2.9992,-2.9824,-2.9875,-2.9828,-2.9779,-2.9863,-2.9897,-2.9832,-3.0063,-2.9971,-2.9992,-2.9993,-3.004,-3.0075,-3.0105,-2.9704,-2.9702,-2.9701,0,0,-3.044,-3.0393,-3.0457,-3.0421,-3.0361,-3.0288,-3.0304,-3.0219,-3.0181,-3.0229,-3.0103,-3.0121,-3.0134,-3.0103,-3.009,-3.0308,-3.0213,-3.0312,-3.0465,-3.0519,-3.0548,-3.0572,-3.065,-3.068,-3.0328,-3.0328,-3.0328,0,-3.0598,-3.0623,-3.0504,-3.0541,-3.0529,-3.0374,-3.0441,-3.0412,-3.0358,-3.0354,-3.0281,-3.0292,-3.0248,-3.0323,-3.0376,-3.037,-3.0385,-3.032,-3.0553,-3.0576,-3.0597,-3.067,-3.07,-3.034,-3.0339,-3.0338,-3.0337,0,-3.0821,-3.0841,-3.0901,-3.0848,-3.0843,-3.0895,-3.0785,-3.0795,-3.0716,-3.0651,-3.0703,-3.0644,-3.0628,-3.064,-3.0565,-3.0705,-3.0666,-3.0576,-3.0448,-3.0646,-3.0712,-3.0739,-3.0358,-3.0354,-3.035,-3.0347,0,0,-3.1188,-3.1066,-3.1091,-3.1064,-3.0988,-3.1002,-3.1048,-3.1029,-3.104,-3.1008,-3.1044,-3.1057,-3.0972,-3.0957,-3.0877,-3.0924,-3.1101,-3.0827,-3.0824,-3.088,-3.1251,-3.132,-3.1354,-3.1037,-3.1042,-3.1046,-3.1255,0,-3.1402,-3.1469,-3.1363,-3.1456,-3.1473,-3.1327,-3.1366,-3.1325,-3.1266,-3.1274,-3.1209,-3.122,-3.1107,-3.1096,-3.1137,-3.1071,-3.1174,-3.1054,-3.1071,-3.1073,-3.1088,-3.1388,-3.1461,-3.1661,-3.128,-3.1284,-3.1287,0,-3.166,-3.1637,-3.1732,-3.1647,-3.1651,-3.1688,-3.1662,-3.1671,-3.1621,-3.1575,-3.1557,-3.1461,-3.1502,-3.1379,-3.1434,-3.1356,-3.1357,-3.1326,-3.1331,-3.1328,-3.1193,-3.1394,-3.1722,-3.1752,-3.1327,-3.1324,-3.1321,0,-3.1918,-3.1911,-3.1965,-3.1948,-3.1852,-3.1881,-3.1843,-3.1787,-3.1783,-3.1761,-3.1757,-3.1742,-3.1735,-3.1727,-3.163,-3.1549,-3.1698,-3.1566,-3.1661,-3.1664,-3.1699,-3.1699,-3.2032,-3.1701,-3.1701,-3.17,-3.17,0,-3.2167,-3.2231,-3.2079,-3.2114,-3.2181,-3.2058,-3.2129,-3.2077,-3.2028,-3.2051,-3.1925,-3.195,-3.182,-3.1832,-3.1757,-3.1814,-3.1812,-3.1777,-3.1757,-3.1788,-3.1793,-3.1787,-3.177,-3.1708,-3.1706,-3.1705,-3.1703,0,-3.2466,-3.2367,-3.2417,-3.2321,-3.2298,-3.2352,-3.2271,-3.23,-3.2231,-3.2262,-3.2262,-3.2157,-3.2163,-3.2066,-3.2055,-3.2005,-3.2096,-3.2052,-3.2112,-3.2098,-3.2198,-3.219,-3.254,-3.2579,-3.2225,-3.2228,-3.2231,0,-3.2632,-3.2676,-3.2584,-3.2589,-3.2556,-3.2566,-3.2559,-3.2441,-3.244,-3.2387,-3.2423,-3.2419,-3.2409,-3.2427,-3.2351,-3.2342,-3.2296,-3.2419,-3.2294,-3.2324,-3.2297,-3.2296,-3.23,-3.2446,-3.245,-3.2454,-3.2457,0,-3.2936,-3.2884,-3.2878,-3.2856,-3.2851,-3.2828,-3.2798,-3.281,-3.2681,-3.2687,-3.269,-3.2683,-3.267,-3.2668,-3.2644,-3.2607,-3.2512,-3.2497,-3.2518,-3.2551,-3.2584,-3.2567,-3.2183,-3.2489,-3.2486,-3.2484,-3.2482,-3.248,-3.3172,-3.3205,-3.3144,-3.3142,-3.3106,-3.308,-3.3102,-3.3035,-3.3035,-3.3013,-3.2944,-3.296,-3.291,-3.2867,-3.2839,-3.2851,-3.2791,-3.2823,-3.283,-3.284,-3.2858,-3.2582,-3.2847,-3.2845,-3.2845,-3.2844,-3.2843,0,-3.3469,-3.3423,-3.3422,-3.3381,-3.338,-3.3287,-3.3248,-3.3254,-3.3268,-3.3228,-3.322,-3.3225,-3.3222,-3.3145,-3.3133,-3.3158,-3.3114,-3.3159,-3.3156,-3.3149,-3.2913,-3.2895,-3.3195,-3.3195,-3.3195,-3.3195,-3.3195,-3.3195,-3.3623,-3.3673,-3.3615,-3.3646,-3.3599,-3.3611,-3.3597,-3.3573,-3.354,-3.3549,-3.3545,-3.3494,-3.3439,-3.3423,-3.3417,-3.3394,-3.3396,-3.3456,-3.342,-3.32,-3.3166,-3.3134,-3.3116,-3.3458,-3.3458,-3.3654,-3.3656,-3.3658]},{"header":{"parameterUnit":"m.s-1","parameterCategory":1,"la1":30.2991,"la2":30.254,"lo1":-89.0895,"lo2":-89.0444,"dy":0.0017,"dx":0.0017,"nx":28,"ny":28,"refTime":"2024-08-30T03:00:00:Z","depth":0,"parameterNumber":3,"parameterNumberName":"V-component_of_WINDS"},"data":[0,0,0,0,0,0,0,0,0,0,0,0,0,0,0,0,0,0,0,0,0,0,0,0,0,0,0,0,0,0,0,0,0,0,0,0,0,0,0,0,0,0,0,0,0,0,0,0,0,0,0,0,0,0,0,0,0,0,-0.0583,-0.0585,0,-0.0722,-0.0723,-0.0725,-0.0878,-0.088,-0.0883,-0.0885,-0.1021,-0.1022,-0.1024,0,0,0,0,0,0,0,0,0,0,0,0,0,-0.0447,-0.0448,-0.0583,-0.0585,-0.0587,-0.0721,-0.0723,-0.0725,-0.0878,-0.088,-0.0883,-0.0886,-0.102,-0.1022,-0.1024,0,0,0,0,0,0,0,0,0,0,0,0,0,-0.0537,-0.0449,-0.0583,-0.0679,-0.0689,-0.0721,-0.0723,-0.0726,-0.0877,-0.088,-0.0884,-0.0887,-0.102,-0.1022,-0.1024,-0.0971,0,0,-0.1031,-0.1032,0,0,0,0,0,0,0,0,-0.0532,-0.0542,-0.0663,-0.0673,-0.0684,-0.0786,-0.0725,-0.0808,-0.0876,-0.0806,-0.0885,-0.0889,-0.094,-0.0949,-0.0967,-0.0977,-0.0983,-0.1032,-0.1033,-0.1034,-0.1035,0,0,0,0,0,0,0,-0.0525,-0.0537,-0.0638,-0.0665,-0.0677,-0.0714,-0.0731,-0.0742,-0.0852,-0.0812,-0.0823,-0.0838,-0.0946,-0.0965,-0.0971,-0.0985,-0.1031,-0.1033,-0.1035,-0.1036,-0.0957,-0.0954,0,0,0,0,0,0,-0.0505,-0.0531,-0.0634,-0.0642,-0.0615,-0.0714,-0.0732,-0.075,-0.0852,-0.0871,-0.0835,-0.0845,-0.0959,-0.0969,-0.0977,-0.0921,-0.1034,-0.1036,-0.1037,-0.0961,-0.0957,-0.0953,0,0,0,0,0,0,-0.0502,-0.0513,-0.0628,-0.059,-0.0607,-0.0712,-0.0731,-0.0751,-0.077,-0.087,-0.089,-0.0834,-0.0962,-0.0974,-0.0971,-0.0927,-0.1037,-0.1039,-0.0965,-0.0959,-0.0955,-0.0807,0,0,0,0,0,0,-0.0497,-0.0511,-0.0493,-0.0588,-0.0609,-0.0621,-0.0728,-0.0751,-0.0774,-0.0788,-0.0874,-0.0892,-0.0966,-0.0967,-0.0974,-0.0932,-0.1041,-0.0969,-0.0962,-0.0956,-0.0816,-0.0797,-0.0781,0,0,0,0,0,-0.0492,-0.0445,-0.0491,-0.0503,-0.0588,-0.0618,-0.063,-0.0718,-0.077,-0.0752,-0.0816,-0.0889,-0.0931,-0.0966,-0.0974,-0.0933,-0.0972,-0.0964,-0.0957,-0.0824,-0.0801,-0.0782,0,0,0,0,0,0,-0.034,-0.0459,-0.0512,-0.0495,-0.0545,-0.0644,-0.0624,-0.0691,-0.0726,-0.0738,-0.0844,-0.0862,-0.0846,-0.089,-0.0926,-0.0886,-0.0962,-0.0956,-0.0858,-0.0837,-0.082,-0.0809,-0.1043,0,0,0,0,0,-0.0305,-0.0321,-0.0423,-0.0398,-0.0421,-0.0518,-0.0534,-0.0597,-0.0654,-0.0675,-0.074,-0.079,-0.0815,-0.0829,-0.0857,-0.0824,-0.0844,-0.0799,-0.0782,-0.0767,-0.076,-0.0744,-0.0725,-0.0927,-0.0927,-0.0927,0,0,-0.0231,-0.0298,-0.0302,-0.0369,-0.0416,-0.0429,-0.0535,-0.0544,-0.0554,-0.0676,-0.0679,-0.0727,-0.079,-0.0771,-0.0767,-0.0807,-0.0709,-0.0757,-0.0744,-0.0746,-0.0734,-0.0715,-0.0698,-0.0922,-0.0923,-0.0924,0,0,-0.0104,-0.0157,-0.0142,-0.0187,-0.0257,-0.0322,-0.0317,-0.0407,-0.0444,-0.0448,-0.054,-0.0553,-0.0594,-0.0635,-0.066,-0.0548,-0.0616,-0.0554,-0.0462,-0.0446,-0.043,-0.0416,-0.0375,-0.0359,-0.0547,-0.0547,-0.0547,0,-0.0004,-0.0028,-0.0125,-0.0128,-0.0154,-0.0268,-0.0252,-0.029,-0.0365,-0.038,-0.0425,-0.0478,-0.0529,-0.0521,-0.0493,-0.0511,-0.0508,-0.0545,-0.0425,-0.0412,-0.0401,-0.0362,-0.0347,-0.0539,-0.054,-0.054,-0.0541,0,0.0099,0.0084,0.0105,0.0034,0.001,0.0017,-0.0077,-0.0089,-0.015,-0.0209,-0.0211,-0.0276,-0.0319,-0.0322,-0.0381,-0.0322,-0.0345,-0.0406,-0.0484,-0.0372,-0.0337,-0.0324,-0.0527,-0.053,-0.0532,-0.0534,0,0,0.0319,0.0194,0.0204,0.017,0.0085,0.0072,0.0074,0.003,0.0022,-0.0025,-0.0025,-0.0057,-0.0114,-0.0143,-0.0208,-0.0193,-0.0098,-0.0256,-0.0259,-0.0223,-0.0036,0.0012,0.003,-0.0144,-0.0142,-0.014,-0.003,0,0.0432,0.0426,0.034,0.036,0.0346,0.0238,0.024,0.0189,0.0134,0.0115,0.0054,0.0034,-0.004,-0.0059,-0.0049,-0.0112,-0.0062,-0.0121,-0.0143,-0.0143,-0.0123,0.0048,0.0097,0.0204,-0.0017,-0.0015,-0.0013,0,0.0562,0.0521,0.054,0.0454,0.0445,0.0448,0.0401,0.0384,0.0324,0.0283,0.0251,0.0177,0.0175,0.0101,0.0097,0.0059,0.0045,0.0013,0.0015,0.0011,-0.007,0.0049,0.0236,0.0253,0.0006,0.0005,0.0003,0,0.0722,0.0672,0.0676,0.0651,0.0551,0.0556,0.0515,0.0451,0.0431,0.0391,0.0377,0.0338,0.0317,0.0289,0.0208,0.0161,0.0215,0.0133,0.0182,0.0185,0.0199,0.02,0.0388,0.0189,0.0188,0.0188,0.0188,0,0.0858,0.0874,0.0746,0.075,0.0765,0.0666,0.0684,0.0633,0.0578,0.057,0.0475,0.047,0.0362,0.0346,0.0283,0.0291,0.0282,0.025,0.0233,0.0259,0.0263,0.0249,0.024,0.0192,0.0191,0.0191,0.019,0,0.104,0.0954,0.0953,0.0858,0.0834,0.085,0.0769,0.0769,0.0708,0.07,0.0692,0.0597,0.0573,0.0489,0.0445,0.0402,0.0431,0.0397,0.0451,0.044,0.0495,0.0491,0.0682,0.0702,0.0489,0.0491,0.0493,0,0.1132,0.1142,0.1048,0.1035,0.0998,0.0979,0.0957,0.086,0.0842,0.0775,0.0784,0.0752,0.0721,0.0688,0.0617,0.0583,0.0548,0.0617,0.0543,0.0569,0.0551,0.0552,0.0553,0.0634,0.0637,0.0639,0.0641,0,0.1306,0.1264,0.1235,0.1192,0.1169,0.1131,0.1088,0.1083,0.0975,0.096,0.0934,0.091,0.0864,0.0835,0.0789,0.0748,0.0678,0.0665,0.0675,0.0702,0.0733,0.0718,0.0496,0.0661,0.0659,0.0658,0.0657,0.0656,0.1446,0.145,0.1385,0.1357,0.1313,0.1275,0.1271,0.1209,0.1184,0.1139,0.1083,0.1064,0.1005,0.0936,0.0901,0.0886,0.0847,0.0861,0.0865,0.087,0.0884,0.0735,0.0877,0.0877,0.0876,0.0875,0.0875,0,0.1616,0.1569,0.1544,0.1486,0.1464,0.1397,0.1346,0.1333,0.1317,0.1267,0.1239,0.1209,0.118,0.1106,0.107,0.1073,0.104,0.1067,0.1066,0.1058,0.092,0.0915,0.1094,0.1094,0.1094,0.1094,0.1094,0.1094,0.1702,0.1706,0.1656,0.1637,0.159,0.1569,0.1546,0.1511,0.147,0.1441,0.1416,0.1367,0.1308,0.1267,0.1238,0.1217,0.1209,0.1248,0.1217,0.1089,0.1068,0.1048,0.1043,0.1246,0.1247,0.1356,0.1357,0.1358]}]]